4XPAD LLHZ-LLBG

Flight info

Callsign 4XPAD
Flight time 0h -3m
Altitude 2500
Route CVFR
Aircraft C404/L-V/N

Departure

Time 2026-04-30 19:20
Airport Herzliya Airport (LLHZ)

Arrival

Time 2026-04-30 19:17
Airport Ben Gurion International Airport (LLBG)
Time Latitude Longitude Altitude Speed Heading
2026-04-30 19:17 32.18057 34.83149 98 ft 0 kts 108°
2026-04-30 19:18 32.18036 34.83297 102 ft 16 kts 98°
2026-04-30 19:18 32.17983 34.83491 110 ft 18 kts 114°
2026-04-30 19:18 32.17967 34.83589 115 ft 7 kts 44°
2026-04-30 19:19 32.18008 34.83529 112 ft 28 kts 296°
2026-04-30 19:19 32.18129 34.83128 97 ft 72 kts 289°
2026-04-30 19:19 32.18369 34.81795 324 ft 94 kts 262°
2026-04-30 19:20 32.17959 34.81227 564 ft 101 kts 211°
2026-04-30 19:20 32.17358 34.80631 695 ft 115 kts 209°
2026-04-30 19:20 32.15860 34.79943 1436 ft 119 kts 199°
2026-04-30 19:21 32.15031 34.79603 1666 ft 132 kts 200°
2026-04-30 19:21 32.12988 34.78721 1631 ft 170 kts 201°
2026-04-30 19:22 32.10703 34.77708 1628 ft 178 kts 201°
2026-04-30 19:22 32.07236 34.76156 1628 ft 178 kts 201°
2026-04-30 19:23 32.03771 34.74687 1608 ft 171 kts 185°
2026-04-30 19:24 32.02327 34.76395 1614 ft 160 kts 100°
2026-04-30 19:24 32.01913 34.77603 1608 ft 161 kts 125°
2026-04-30 19:24 32.00368 34.79461 1617 ft 159 kts 134°
2026-04-30 19:25 31.98009 34.82233 1621 ft 160 kts 134°
2026-04-30 19:26 31.96445 34.84075 1618 ft 156 kts 134°
2026-04-30 19:26 31.95185 34.85553 1620 ft 153 kts 134°
2026-04-30 19:26 31.94434 34.86437 1619 ft 152 kts 134°
2026-04-30 19:27 31.92961 34.88227 1612 ft 152 kts 122°
2026-04-30 19:27 31.93467 34.90388 1622 ft 148 kts 51°
2026-04-30 19:28 31.94099 34.91349 1629 ft 149 kts 51°
2026-04-30 19:28 31.95375 34.93282 1628 ft 149 kts 51°
2026-04-30 19:29 31.96645 34.95210 1629 ft 149 kts 50°
2026-04-30 19:29 31.97423 34.95987 1616 ft 148 kts 16°
2026-04-30 19:30 32.00404 34.95250 1621 ft 147 kts 345°
2026-04-30 19:30 32.02032 34.94056 1609 ft 150 kts 284°
2026-04-30 19:31 32.02536 34.91697 1622 ft 149 kts 291°
2026-04-30 19:31 32.02893 34.90553 1629 ft 149 kts 291°
2026-04-30 19:31 32.03603 34.88260 1627 ft 149 kts 291°
2026-04-30 19:32 32.03960 34.87109 1632 ft 149 kts 291°
2026-04-30 19:32 32.04318 34.85954 1628 ft 150 kts 291°
2026-04-30 19:32 32.04674 34.84812 1633 ft 151 kts 291°
2026-04-30 19:32 32.05034 34.83650 1630 ft 150 kts 291°
2026-04-30 19:33 32.05365 34.82483 1625 ft 150 kts 279°
2026-04-30 19:33 32.05016 34.81367 1618 ft 151 kts 221°
2026-04-30 19:33 32.04086 34.81133 1613 ft 135 kts 158°
2026-04-30 19:33 32.03486 34.81890 1550 ft 125 kts 115°
2026-04-30 19:34 32.03180 34.82746 1246 ft 104 kts 106°
2026-04-30 19:34 32.02957 34.83549 943 ft 103 kts 112°
2026-04-30 19:34 32.02276 34.85011 463 ft 102 kts 119°
2026-04-30 19:35 32.01920 34.85707 318 ft 97 kts 121°
2026-04-30 19:35 32.01569 34.86379 191 ft 96 kts 120°
2026-04-30 19:35 32.01232 34.87035 116 ft 83 kts 121°
2026-04-30 19:35 32.01063 34.87365 116 ft 25 kts 125°
2026-04-30 19:36 32.00978 34.87528 118 ft 22 kts 124°
2026-04-30 19:36 32.00870 34.87742 116 ft 40 kts 121°
2026-04-30 19:36 32.00632 34.87949 115 ft 16 kts 213°
2026-04-30 19:37 32.00542 34.87894 115 ft 13 kts 221°
2026-04-30 19:37 32.00476 34.87832 115 ft 12 kts 229°
2026-04-30 19:37 32.00420 34.87790 113 ft 9 kts 223°
2026-04-30 19:37 32.00376 34.87736 116 ft 9 kts 233°
2026-04-30 19:38 32.00331 34.87741 116 ft 11 kts 163°
2026-04-30 19:38 32.00280 34.87831 116 ft 17 kts 122°
2026-04-30 19:38 32.00256 34.87876 115 ft 0 kts 122°